Tracking 25710 objects as of 6-Jul-2022
HD Live streaming from Space Station
objects crossing your sky now

STARLINK-3557

Track STARLINK-3557 now!
10-day predictions
STARLINK-3557 is classified as:


NORAD ID: 51802
Int'l Code: 2022-017AL
Perigee: 545.8 km
Apogee: 548.0 km
Inclination: 53.2 °
Period: 95.4 minutes
Semi major axis: 6917 km
RCS: Unknown
Launch date: February 25, 2022
Source: United States (US)
Launch site: AIR FORCE WESTERN TEST RANGE (AFWTR)
aabbcc
Your satellite tracking list
Your tracking list is empty




NASA's NSSDC Master Catalog

Two Line Element Set (TLE):
1 51802U 22017AL  22187.25001157 -.00005316  00000-0 -31620-3 0  9991
2 51802  53.2187 255.5720 0001640  52.2253 121.8414 15.08837292 21256
Source of the keplerian elements: AFSPC